Location: Newark
(25.5428°S, 54.5819°W)
Time: 20:03:41
(UTC+00:00)

Envisat - Pass Details

Date: 22 July 2019
Orbit: 764 x 766 km, 98.1° (Epoch: 17 August)

Event Time Altitude Azimuth Distance (km) Brightness Sun altitude
Exits shadow 22:53:12 14° 176° (S) 2,069 5.1 -23.4°
Maximum altitude 22:57:37 66° 256° (WSW) 841 3.3 -24.4°
Drops below altitude 10° 23:02:39 10° 337° (NNW) 2,299 5.9 -25.5°
Sets 23:04:57 0° 340° (NNW) 3,218 6.6 -26.0°
